Location: Bretagne
(43.8474°N, 0.4650°W)
Time: 20:14:32
(UTC+00:00)

USA 238 DEB - Pass Details

Date: 15 January 2026
Orbit: 883 x 1328 km, 63.4° (Epoch: 10 January)

Event Time Altitude Azimuth Distance (km) Brightness Sun altitude
Rises 18:13:54 0° 322° (NW) 3,985 7.0 -14.8°
Reaches altitude 10° 18:16:30 10° 322° (NW) 3,082 6.4 -15.3°
Maximum altitude 18:24:00 84° 236° (WSW) 1,260 4.1 -16.6°
Drops below altitude 10° 18:32:08 10° 149° (SSE) 3,322 6.1 -18.0°
Sets 18:35:02 0° 149° (SSE) 4,310 6.7 -18.5°
